Location: Conflandey
(47.7287°N, 6.0456°E)
Time: 02:41:49
(UTC+00:00)

HJ-1C - Pass Details

Date: 24 October 2021
Orbit: 423 x 433 km, 97.1° (Epoch: 28 November)

Event Time Altitude Azimuth Distance (km) Brightness Sun altitude
Exits shadow 18:01:15 38° 92° (E) 674 3.7 -15.8°
Maximum altitude 18:01:38 39° 72° (ENE) 652 3.7 -15.8°
Drops below altitude 10° 18:04:44 10° 2° (N) 1,533 6.1 -16.4°
Sets 18:06:49 0° 355° (N) 2,408 7.2 -16.7°
